This demonstration page uses our WeatherBlox Daily Observations layout. Learn more.

Left ArrowRight Arrow

Hourly Observations for August 12, 2020

Temp ( °F °C ) Dew Point ( °F °C ) Humidity (%) Winds ( mph kmh ) Pressure ( in mb ) Visibility ( mi km ) Precip ( " mm )
12:52 am 00:52 Clear 70 21.1 68 20 93 93 N 6 9 29.98 1015 10 16 0.00 0.00
1:52 am 01:52 Clear 69 20.6 68 20 96 96 E 7 11 29.99 1016 10 16 0.00 0.00
2:52 am 02:52 Clear 69 20.6 67 19.4 93 93 ESE 5 7 29.98 1015 10 16 0.00 0.00
3:52 am 03:52 Clear 68 20 66 18.9 93 93 SE 5 7 29.97 1015 10 16 0.00 0.00
4:52 am 04:52 Clear 67 19.4 66 18.9 97 97 SE 6 9 29.98 1015 10 16 0.00 0.00
5:52 am 05:52 Clear 67 19.4 66 18.9 97 97 S 5 7 29.99 1016 10 16 0.00 0.00
6:45 am 06:45 Partly Cloudy 66 18.9 65 18.3 96 96 SSE 6 9 30.01 1016 9 14 0.00 0.00
6:52 am 06:52 Mostly Cloudy with Mist and Fog 66 18.9 65 18.3 96 96 SSE 5 7 30.01 1016 6 10 0.00 0.00
7:52 am 07:52 Mostly Cloudy 67 19.4 67 19.4 100 100 SSE 7 11 30.03 1017 10 16 0.00 0.00
8:08 am 08:08 Partly Cloudy 68 20 67 19.4 96 96 S 7 11 30.02 1017 10 16 0.00 0.00
8:52 am 08:52 Partly Cloudy 71 21.7 68 20 90 90 S 7 11 30.03 1017 10 16 0.00 0.00
9:52 am 09:52 Sunny 75 23.9 68 20 79 79 VRB 5 7 30.02 1017 10 16 0.00 0.00
10:52 am 10:52 Sunny 79 26.1 67 19.4 67 67 SE 7 11 30.02 1017 10 16 0.00 0.00
11:52 am 11:52 Sunny 82 27.8 66 18.9 58 58 SSE 9 15 30.01 1016 10 16 0.00 0.00
12:52 pm 12:52 Sunny 83 28.3 66 18.9 57 57 SE 9 15 30.00 1016 10 16 0.00 0.00
1:52 pm 13:52 Sunny 86 30 65 18.3 49 49 SE 6 9 29.98 1015 10 16 0.00 0.00
2:52 pm 14:52 Sunny 86 30 64 17.8 48 48 VRB 5 7 29.95 1014 10 16 0.00 0.00
3:52 pm 15:52 Mostly Sunny 88 31.1 66 18.9 48 48 ESE 13 20 29.94 1014 10 16 0.00 0.00
4:52 pm 16:52 Mostly Sunny 87 30.6 66 18.9 50 50 SE 7 11 29.92 1013 10 16 0.00 0.00
5:52 pm 17:52 Mostly Sunny 87 30.6 66 18.9 50 50 VRB 3 6 29.90 1013 10 16 0.00 0.00
6:52 pm 18:52 Mostly Sunny 86 30 66 18.9 51 51 ESE 10 17 29.92 1013 10 16 0.00 0.00
7:52 pm 19:52 Sunny 81 27.2 68 20 65 65 SE 6 9 29.93 1014 10 16 0.00 0.00
8:52 pm 20:52 Clear 79 26.1 68 20 69 69 SSE 6 9 29.95 1014 10 16 0.00 0.00
9:14 pm 21:14 Clear 78 25.6 68 20 71 71 SE 6 9 29.94 1014 10 16 0.00 0.00
9:52 pm 21:52 Clear 76 24.4 68 20 77 77 SSE 7 11 29.98 1015 10 16 0.00 0.00
10:52 pm 22:52 Mostly Clear 76 24.4 68 20 77 77 SSE 7 11 29.98 1015 10 16 0.00 0.00
11:52 pm 23:52 Clear 75 23.9 68 20 79 79 SE 8 13 29.98 1015 10 16 0.00 0.00

Powered by AerisWeather